RYR17CG EGBB-LIPH

Flight info

Callsign RYR17CG
Flight time 1h 54m
Altitude 37000
Route COWLY DCT LINDY DCT EVATA DCT MID L612 BOGNA DCT XAMAB UL612 RESMI UN491 POGZI DCT GELTA DCT LUVAL DCT SHARA DCT DEVDI DCT RIPUS DCT RESIA P131 ADOSA
Aircraft B38M/M-SADE3FGILRWY/SB1

Departure

Time 2026-05-09 03:45
Airport Birmingham Airport (EGBB)

Arrival

Time 2026-05-09 05:39
Airport Treviso Airport (LIPH)
Time Latitude Longitude Altitude Speed Heading
2026-05-09 03:14 52.45313 -1.73737 315 ft 0 kts 146°
2026-05-09 03:15 52.45311 -1.73735 324 ft 0 kts 146°
2026-05-09 03:35 52.45320 -1.73745 323 ft 3 kts 146°
2026-05-09 03:35 52.45337 -1.73764 322 ft 3 kts 146°
2026-05-09 03:36 52.45353 -1.73781 323 ft 3 kts 156°
2026-05-09 03:36 52.45371 -1.73789 322 ft 3 kts 181°
2026-05-09 03:36 52.45389 -1.73782 323 ft 3 kts 213°
2026-05-09 03:36 52.45401 -1.73765 324 ft 1 kts 236°
2026-05-09 03:37 52.45398 -1.73773 324 ft 3 kts 236°
2026-05-09 03:37 52.45388 -1.73795 323 ft 1 kts 236°
2026-05-09 03:37 52.45388 -1.73797 323 ft 0 kts 236°
2026-05-09 03:39 52.45379 -1.73818 324 ft 4 kts 236°
2026-05-09 03:39 52.45360 -1.73865 325 ft 6 kts 236°
2026-05-09 03:40 52.45333 -1.73931 324 ft 8 kts 236°
2026-05-09 03:40 52.45310 -1.74021 325 ft 9 kts 275°
2026-05-09 03:40 52.45338 -1.74126 324 ft 11 kts 296°
2026-05-09 03:40 52.45375 -1.74245 324 ft 13 kts 297°
2026-05-09 03:41 52.45418 -1.74383 324 ft 14 kts 297°
2026-05-09 03:41 52.45464 -1.74537 325 ft 16 kts 297°
2026-05-09 03:41 52.45550 -1.74657 325 ft 17 kts 325°
2026-05-09 03:41 52.45624 -1.74739 318 ft 21 kts 326°
2026-05-09 03:42 52.45761 -1.74889 312 ft 26 kts 326°
2026-05-09 03:42 52.45919 -1.75067 308 ft 29 kts 326°
2026-05-09 03:42 52.46090 -1.75256 306 ft 30 kts 324°
2026-05-09 03:42 52.46269 -1.75456 306 ft 32 kts 325°
2026-05-09 03:43 52.46456 -1.75665 305 ft 32 kts 328°
2026-05-09 03:43 52.46621 -1.75858 310 ft 20 kts 308°
2026-05-09 03:43 52.46608 -1.75983 310 ft 12 kts 235°
2026-05-09 03:43 52.46544 -1.76071 311 ft 12 kts 176°
2026-05-09 03:44 52.46475 -1.76012 311 ft 11 kts 144°
2026-05-09 03:44 52.46255 -1.75766 312 ft 77 kts 146°
2026-05-09 03:44 52.45619 -1.75057 325 ft 145 kts 145°
2026-05-09 03:44 52.44661 -1.73999 641 ft 175 kts 146°
2026-05-09 03:45 52.43656 -1.72909 1615 ft 171 kts 146°
2026-05-09 03:45 52.42658 -1.71789 2421 ft 181 kts 146°
2026-05-09 03:45 52.41555 -1.70584 2967 ft 201 kts 152°
2026-05-09 03:45 52.40160 -1.69809 3519 ft 223 kts 165°
2026-05-09 03:46 52.38692 -1.69183 4667 ft 214 kts 165°
2026-05-09 03:46 52.37291 -1.68277 5561 ft 222 kts 153°
2026-05-09 03:46 52.35903 -1.67124 5904 ft 223 kts 153°
2026-05-09 03:46 52.34520 -1.65811 5967 ft 239 kts 147°
2026-05-09 03:47 52.33073 -1.64282 5965 ft 255 kts 147°
2026-05-09 03:47 52.31561 -1.62705 5970 ft 261 kts 148°
2026-05-09 03:47 52.30014 -1.61108 5990 ft 264 kts 148°
2026-05-09 03:47 52.28459 -1.59512 6019 ft 264 kts 148°
2026-05-09 03:48 52.26903 -1.57921 6017 ft 264 kts 148°
2026-05-09 03:48 52.25313 -1.56381 6089 ft 267 kts 154°
2026-05-09 03:48 52.23654 -1.55065 7054 ft 260 kts 154°
2026-05-09 03:48 52.22013 -1.53752 7985 ft 268 kts 154°
2026-05-09 03:49 52.20315 -1.52382 8862 ft 274 kts 154°
2026-05-09 03:49 52.18590 -1.51015 9824 ft 279 kts 155°
2026-05-09 03:49 52.16827 -1.49626 10665 ft 284 kts 155°
2026-05-09 03:49 52.15030 -1.48208 11448 ft 291 kts 155°
2026-05-09 03:50 52.13147 -1.46720 11901 ft 311 kts 155°
2026-05-09 03:50 52.11153 -1.45146 12405 ft 326 kts 155°
2026-05-09 03:50 52.09082 -1.43511 13061 ft 334 kts 155°
2026-05-09 03:50 52.06982 -1.41856 13893 ft 338 kts 155°
2026-05-09 03:51 52.04845 -1.40172 14555 ft 344 kts 155°
2026-05-09 03:51 52.02714 -1.38494 15238 ft 348 kts 155°
2026-05-09 03:51 52.00491 -1.36748 15920 ft 352 kts 155°
2026-05-09 03:51 51.98307 -1.35032 16581 ft 356 kts 155°
2026-05-09 03:52 51.96065 -1.33274 17247 ft 360 kts 155°
2026-05-09 03:52 51.93793 -1.31495 17868 ft 364 kts 155°
2026-05-09 03:52 51.91467 -1.29675 18506 ft 369 kts 155°
2026-05-09 03:52 51.89249 -1.27942 19045 ft 371 kts 155°
2026-05-09 03:53 51.86890 -1.26101 19670 ft 372 kts 156°
2026-05-09 03:53 51.84551 -1.24278 20269 ft 374 kts 156°
2026-05-09 03:53 51.82206 -1.22451 20867 ft 375 kts 156°
2026-05-09 03:53 51.79853 -1.20621 21452 ft 376 kts 156°
2026-05-09 03:54 51.77515 -1.18805 21962 ft 381 kts 156°
2026-05-09 03:54 51.75085 -1.16918 22051 ft 395 kts 156°
2026-05-09 03:54 51.72570 -1.14968 22275 ft 406 kts 156°
2026-05-09 03:54 51.70022 -1.12996 22854 ft 406 kts 156°
2026-05-09 03:55 51.67469 -1.11022 23378 ft 408 kts 156°
2026-05-09 03:55 51.64900 -1.09037 23883 ft 410 kts 156°
2026-05-09 03:55 51.62306 -1.07100 24298 ft 411 kts 162°
2026-05-09 03:55 51.59529 -1.06219 24728 ft 408 kts 179°
2026-05-09 03:56 51.56757 -1.05987 25099 ft 411 kts 177°
2026-05-09 03:56 51.53896 -1.05665 25496 ft 413 kts 177°
2026-05-09 03:56 51.51017 -1.05350 25906 ft 415 kts 177°
2026-05-09 03:56 51.48134 -1.04919 26292 ft 418 kts 169°
2026-05-09 03:57 51.45392 -1.03351 26705 ft 422 kts 154°
2026-05-09 03:57 51.42794 -1.01159 27174 ft 422 kts 154°
2026-05-09 03:57 51.40195 -0.98978 27667 ft 420 kts 154°
2026-05-09 03:57 51.37617 -0.96790 28196 ft 419 kts 154°
2026-05-09 03:58 51.35054 -0.94602 28710 ft 417 kts 154°
2026-05-09 03:58 51.32506 -0.92423 29228 ft 415 kts 154°
2026-05-09 03:58 51.29956 -0.90243 29731 ft 414 kts 154°
2026-05-09 03:58 51.27423 -0.88080 30215 ft 412 kts 154°
2026-05-09 03:59 51.24889 -0.85919 30418 ft 417 kts 154°
2026-05-09 03:59 51.22301 -0.83714 30526 ft 423 kts 154°
2026-05-09 03:59 51.19704 -0.81504 30866 ft 424 kts 154°
2026-05-09 03:59 51.17098 -0.79290 31106 ft 426 kts 153°
2026-05-09 04:00 51.14509 -0.76963 31370 ft 429 kts 146°
2026-05-09 04:00 51.12295 -0.73754 31673 ft 433 kts 135°
2026-05-09 04:00 51.10187 -0.70317 31873 ft 436 kts 137°
2026-05-09 04:00 51.08066 -0.66870 32137 ft 437 kts 136°
2026-05-09 04:01 51.05932 -0.63405 32409 ft 438 kts 139°
2026-05-09 04:01 51.03931 -0.60952 32722 ft 433 kts 149°
2026-05-09 04:01 51.01426 -0.58298 33025 ft 434 kts 147°
2026-05-09 04:01 50.98929 -0.55601 33326 ft 434 kts 148°
2026-05-09 04:02 50.96427 -0.52923 33700 ft 433 kts 148°
2026-05-09 04:02 50.93934 -0.50265 34032 ft 432 kts 148°
2026-05-09 04:02 50.91435 -0.47607 34317 ft 432 kts 148°
2026-05-09 04:02 50.88941 -0.44957 34602 ft 431 kts 148°
2026-05-09 04:03 50.86448 -0.42313 34882 ft 431 kts 148°
2026-05-09 04:03 50.83955 -0.39671 35131 ft 431 kts 148°
2026-05-09 04:03 50.81459 -0.37030 35390 ft 431 kts 148°
2026-05-09 04:03 50.78964 -0.34395 35640 ft 431 kts 148°
2026-05-09 04:04 50.76469 -0.31761 35895 ft 431 kts 148°
2026-05-09 04:04 50.73985 -0.29143 36134 ft 431 kts 148°
2026-05-09 04:04 50.71486 -0.26512 36354 ft 431 kts 148°
2026-05-09 04:04 50.68993 -0.23893 36571 ft 431 kts 148°
2026-05-09 04:05 50.66500 -0.21274 36797 ft 430 kts 148°
2026-05-09 04:05 50.64007 -0.18661 36989 ft 431 kts 148°
2026-05-09 04:05 50.61510 -0.16047 37114 ft 431 kts 148°
2026-05-09 04:05 50.59010 -0.13432 37097 ft 431 kts 148°
2026-05-09 04:06 50.54031 -0.08235 37101 ft 430 kts 148°
2026-05-09 04:06 50.49039 -0.03038 37093 ft 430 kts 148°
2026-05-09 04:07 50.44047 0.02146 37096 ft 431 kts 148°
2026-05-09 04:07 50.39046 0.07325 37093 ft 431 kts 148°
2026-05-09 04:08 50.34038 0.12499 37098 ft 431 kts 148°
2026-05-09 04:08 50.29025 0.17664 37092 ft 431 kts 148°
2026-05-09 04:09 50.24043 0.22785 37092 ft 432 kts 148°
2026-05-09 04:09 50.19024 0.27946 37093 ft 432 kts 148°
2026-05-09 04:10 50.14002 0.33109 37091 ft 432 kts 148°
2026-05-09 04:10 50.08976 0.38264 37095 ft 433 kts 148°
2026-05-09 04:11 50.03943 0.43413 37091 ft 433 kts 148°
2026-05-09 04:11 49.98902 0.48557 37084 ft 433 kts 148°
2026-05-09 04:12 49.93861 0.53688 37089 ft 434 kts 148°
2026-05-09 04:12 49.88815 0.58810 37089 ft 434 kts 148°
2026-05-09 04:13 49.83912 0.64258 37090 ft 435 kts 143°
2026-05-09 04:13 49.79201 0.70156 37091 ft 435 kts 142°
2026-05-09 04:14 49.74499 0.76063 37088 ft 436 kts 142°
2026-05-09 04:14 49.69785 0.81973 37081 ft 436 kts 143°
2026-05-09 04:15 49.65068 0.87870 37075 ft 436 kts 143°
2026-05-09 04:15 49.60350 0.93755 37066 ft 437 kts 143°
2026-05-09 04:16 49.55623 0.99636 37059 ft 437 kts 143°
2026-05-09 04:16 49.50885 1.05515 37053 ft 437 kts 143°
2026-05-09 04:17 49.46147 1.11380 37051 ft 438 kts 143°
2026-05-09 04:17 49.41400 1.17242 37038 ft 438 kts 143°
2026-05-09 04:18 49.36643 1.23099 37053 ft 438 kts 143°
2026-05-09 04:18 49.31883 1.28946 37043 ft 438 kts 143°
2026-05-09 04:19 49.27121 1.34782 37049 ft 439 kts 143°
2026-05-09 04:19 49.22346 1.40619 37057 ft 439 kts 143°
2026-05-09 04:20 49.17568 1.46444 37059 ft 440 kts 143°
2026-05-09 04:20 49.12784 1.52262 37051 ft 440 kts 143°
2026-05-09 04:21 49.07990 1.58077 37052 ft 440 kts 143°
2026-05-09 04:22 49.00824 1.66742 37054 ft 441 kts 143°
2026-05-09 04:22 48.96014 1.72539 37048 ft 441 kts 143°
2026-05-09 04:23 48.91201 1.78327 37049 ft 441 kts 143°
2026-05-09 04:23 48.86378 1.84111 37044 ft 442 kts 143°
2026-05-09 04:24 48.81551 1.89885 37049 ft 442 kts 144°
2026-05-09 04:24 48.77530 1.94684 37050 ft 442 kts 144°
2026-05-09 04:25 48.74427 1.98380 37054 ft 442 kts 144°
2026-05-09 04:25 48.69586 2.04136 37053 ft 443 kts 144°
2026-05-09 04:26 48.64738 2.09887 37051 ft 443 kts 144°
2026-05-09 04:26 48.59974 2.15808 37026 ft 445 kts 134°
2026-05-09 04:26 48.58192 2.19616 37054 ft 448 kts 118°
2026-05-09 04:27 48.57122 2.24054 37027 ft 452 kts 103°
2026-05-09 04:27 48.56605 2.31944 37016 ft 457 kts 95°
2026-05-09 04:28 48.56253 2.41533 37027 ft 458 kts 94°
2026-05-09 04:28 48.55958 2.51134 37022 ft 458 kts 94°
2026-05-09 04:29 48.55619 2.62305 37021 ft 458 kts 94°
2026-05-09 04:29 48.55369 2.70357 37030 ft 459 kts 94°
2026-05-09 04:30 48.55064 2.79977 37018 ft 459 kts 94°
2026-05-09 04:30 48.54749 2.89606 37033 ft 459 kts 94°
2026-05-09 04:31 48.54431 2.99154 37019 ft 460 kts 94°
2026-05-09 04:31 48.54099 3.08807 37024 ft 460 kts 94°
2026-05-09 04:32 48.53761 3.18457 37025 ft 460 kts 94°
2026-05-09 04:32 48.53414 3.28108 37023 ft 461 kts 95°
2026-05-09 04:33 48.53058 3.37762 37027 ft 461 kts 95°
2026-05-09 04:33 48.52695 3.47424 37033 ft 461 kts 95°
2026-05-09 04:34 48.52323 3.57089 37033 ft 462 kts 95°
2026-05-09 04:34 48.51943 3.66758 37030 ft 462 kts 95°
2026-05-09 04:35 48.51554 3.76429 37033 ft 462 kts 95°
2026-05-09 04:35 48.51158 3.86093 37031 ft 462 kts 95°
2026-05-09 04:36 48.50753 3.95792 37033 ft 463 kts 95°
2026-05-09 04:36 48.49907 4.05349 37037 ft 458 kts 109°
2026-05-09 04:37 48.48219 4.14649 37037 ft 461 kts 107°
2026-05-09 04:37 48.46526 4.23963 37036 ft 461 kts 107°
2026-05-09 04:38 48.44818 4.33279 37038 ft 461 kts 107°
2026-05-09 04:38 48.43101 4.42593 37032 ft 462 kts 107°
2026-05-09 04:39 48.41372 4.51925 37041 ft 462 kts 107°
2026-05-09 04:39 48.39639 4.61235 37040 ft 462 kts 107°
2026-05-09 04:40 48.37895 4.70556 37047 ft 463 kts 107°
2026-05-09 04:40 48.36156 4.79804 37050 ft 463 kts 107°
2026-05-09 04:41 48.34398 4.89106 37052 ft 463 kts 108°
2026-05-09 04:41 48.32631 4.98411 37059 ft 463 kts 108°
2026-05-09 04:42 48.30859 5.07700 37061 ft 463 kts 108°
2026-05-09 04:42 48.29055 5.16986 37066 ft 463 kts 108°
2026-05-09 04:43 48.27200 5.26214 37069 ft 463 kts 108°
2026-05-09 04:43 48.25336 5.35482 37072 ft 463 kts 109°
2026-05-09 04:44 48.23467 5.44728 37078 ft 463 kts 109°
2026-05-09 04:44 48.21592 5.53967 37077 ft 463 kts 109°
2026-05-09 04:45 48.19710 5.63197 37084 ft 463 kts 109°
2026-05-09 04:45 48.17820 5.72421 37081 ft 463 kts 109°
2026-05-09 04:46 48.15922 5.81644 37083 ft 463 kts 109°
2026-05-09 04:46 48.14017 5.90857 37080 ft 463 kts 109°
2026-05-09 04:47 48.12103 6.00068 37083 ft 463 kts 109°
2026-05-09 04:47 48.10184 6.09266 37082 ft 463 kts 109°
2026-05-09 04:48 48.08269 6.18397 37086 ft 463 kts 109°
2026-05-09 04:48 48.06322 6.27641 37084 ft 463 kts 109°
2026-05-09 04:49 48.04395 6.36754 37088 ft 463 kts 110°
2026-05-09 04:49 48.02444 6.45930 37085 ft 463 kts 110°
2026-05-09 04:50 48.00489 6.55096 37086 ft 463 kts 110°
2026-05-09 04:50 47.98513 6.64322 37082 ft 463 kts 110°
2026-05-09 04:51 47.96216 6.73186 37094 ft 461 kts 115°
2026-05-09 04:51 47.93799 6.82058 37078 ft 462 kts 114°
2026-05-09 04:52 47.91400 6.90932 37087 ft 462 kts 114°
2026-05-09 04:52 47.88996 6.99802 37075 ft 461 kts 114°
2026-05-09 04:53 47.86584 7.08666 37078 ft 461 kts 114°
2026-05-09 04:53 47.84169 7.17513 37070 ft 461 kts 114°
2026-05-09 04:54 47.81748 7.26348 37075 ft 461 kts 115°
2026-05-09 04:54 47.79318 7.35179 37071 ft 461 kts 115°
2026-05-09 04:55 47.76883 7.43999 37078 ft 461 kts 115°
2026-05-09 04:55 47.74441 7.52795 37073 ft 461 kts 116°
2026-05-09 04:55 47.72824 7.56856 37076 ft 453 kts 130°
2026-05-09 04:56 47.70945 7.60624 37067 ft 456 kts 128°
2026-05-09 04:56 47.67217 7.68242 37077 ft 456 kts 129°
2026-05-09 04:57 47.63463 7.75805 37076 ft 456 kts 129°
2026-05-09 04:57 47.59697 7.83360 37075 ft 456 kts 129°
2026-05-09 04:58 47.55927 7.90903 37084 ft 455 kts 129°
2026-05-09 04:58 47.52152 7.98434 37083 ft 455 kts 129°
2026-05-09 04:59 47.48401 8.05898 37101 ft 456 kts 129°
2026-05-09 04:59 47.44620 8.13402 37086 ft 455 kts 129°
2026-05-09 05:00 47.40808 8.20945 37103 ft 455 kts 129°
2026-05-09 05:00 47.37039 8.28384 37097 ft 455 kts 130°
2026-05-09 05:01 47.33242 8.35856 37095 ft 455 kts 130°
2026-05-09 05:01 47.29439 8.43323 37097 ft 456 kts 130°
2026-05-09 05:02 47.25650 8.50815 37101 ft 456 kts 129°
2026-05-09 05:02 47.21932 8.58371 37099 ft 456 kts 129°
2026-05-09 05:03 47.18199 8.65913 37080 ft 456 kts 129°
2026-05-09 05:03 47.14459 8.73445 37090 ft 457 kts 129°
2026-05-09 05:04 47.10706 8.80987 37090 ft 457 kts 129°
2026-05-09 05:04 47.06950 8.88510 37090 ft 457 kts 129°
2026-05-09 05:05 47.03186 8.96031 37081 ft 458 kts 129°
2026-05-09 05:05 46.99411 9.03554 37075 ft 458 kts 129°
2026-05-09 05:06 46.95629 9.11068 37074 ft 458 kts 130°
2026-05-09 05:06 46.91848 9.18562 37071 ft 458 kts 130°
2026-05-09 05:07 46.88054 9.26059 37059 ft 458 kts 130°
2026-05-09 05:07 46.84261 9.33537 37077 ft 459 kts 130°
2026-05-09 05:08 46.80454 9.41022 37066 ft 459 kts 130°
2026-05-09 05:08 46.76642 9.48493 37083 ft 460 kts 130°
2026-05-09 05:08 46.74738 9.52220 36860 ft 454 kts 130°
2026-05-09 05:09 46.72856 9.55896 36337 ft 451 kts 130°
2026-05-09 05:09 46.70986 9.59545 35834 ft 448 kts 131°
2026-05-09 05:09 46.69126 9.63171 35346 ft 445 kts 131°
2026-05-09 05:09 46.67301 9.66721 34875 ft 443 kts 131°
2026-05-09 05:10 46.65435 9.70350 34361 ft 441 kts 131°
2026-05-09 05:10 46.63625 9.73862 33861 ft 439 kts 131°
2026-05-09 05:10 46.61792 9.77416 33314 ft 438 kts 132°
2026-05-09 05:10 46.59974 9.80937 32826 ft 435 kts 132°
2026-05-09 05:11 46.58164 9.84437 32362 ft 431 kts 132°
2026-05-09 05:11 46.56368 9.87907 31888 ft 427 kts 132°
2026-05-09 05:11 46.54607 9.91307 31405 ft 417 kts 132°
2026-05-09 05:11 46.52876 9.94644 30961 ft 411 kts 133°
2026-05-09 05:12 46.51168 9.97933 30509 ft 407 kts 133°
2026-05-09 05:12 46.49469 10.01203 30030 ft 403 kts 133°
2026-05-09 05:12 46.47745 10.04354 29510 ft 394 kts 140°
2026-05-09 05:12 46.45693 10.06886 29030 ft 382 kts 147°
2026-05-09 05:13 46.43665 10.09325 28673 ft 375 kts 146°
2026-05-09 05:13 46.41676 10.11725 28279 ft 371 kts 146°
2026-05-09 05:13 46.39673 10.14129 27860 ft 376 kts 146°
2026-05-09 05:13 46.37645 10.16561 27438 ft 380 kts 146°
2026-05-09 05:14 46.35609 10.18999 27048 ft 380 kts 146°
2026-05-09 05:14 46.33577 10.21427 26672 ft 379 kts 145°
2026-05-09 05:14 46.31550 10.23848 26259 ft 376 kts 145°
2026-05-09 05:14 46.29540 10.26245 25882 ft 374 kts 145°
2026-05-09 05:15 46.27540 10.28630 25497 ft 372 kts 145°
2026-05-09 05:15 46.25545 10.31005 25119 ft 370 kts 145°
2026-05-09 05:15 46.23564 10.33362 24745 ft 369 kts 145°
2026-05-09 05:15 46.21587 10.35711 24361 ft 367 kts 144°
2026-05-09 05:16 46.19621 10.38045 24003 ft 365 kts 144°
2026-05-09 05:16 46.17664 10.40366 23609 ft 363 kts 144°
2026-05-09 05:16 46.15714 10.42678 23178 ft 361 kts 144°
2026-05-09 05:16 46.13779 10.44967 22740 ft 358 kts 144°
2026-05-09 05:17 46.12508 10.46470 22511 ft 357 kts 144°
2026-05-09 05:17 46.10597 10.48728 22181 ft 354 kts 144°
2026-05-09 05:17 46.08697 10.50970 21823 ft 352 kts 144°
2026-05-09 05:17 46.06805 10.53203 21466 ft 351 kts 143°
2026-05-09 05:18 46.04921 10.55422 21114 ft 348 kts 143°
2026-05-09 05:18 46.03055 10.57619 20769 ft 346 kts 143°
2026-05-09 05:18 46.01203 10.59798 20424 ft 343 kts 143°
2026-05-09 05:18 45.99366 10.61958 20080 ft 340 kts 143°
2026-05-09 05:19 45.97543 10.64098 19741 ft 338 kts 143°
2026-05-09 05:19 45.95726 10.66229 19397 ft 336 kts 143°
2026-05-09 05:19 45.93922 10.68345 19054 ft 334 kts 143°
2026-05-09 05:19 45.92123 10.70449 18671 ft 334 kts 142°
2026-05-09 05:20 45.90324 10.72552 18326 ft 332 kts 142°
2026-05-09 05:20 45.88537 10.74640 17960 ft 330 kts 142°
2026-05-09 05:20 45.86762 10.76711 17611 ft 327 kts 142°
2026-05-09 05:20 45.85004 10.78761 17275 ft 325 kts 142°
2026-05-09 05:21 45.83266 10.80786 16939 ft 321 kts 142°
2026-05-09 05:21 45.81533 10.82805 16577 ft 320 kts 142°
2026-05-09 05:21 45.79808 10.84815 16232 ft 318 kts 142°
2026-05-09 05:21 45.78097 10.86806 15908 ft 316 kts 142°
2026-05-09 05:22 45.76398 10.88782 15588 ft 313 kts 142°
2026-05-09 05:22 45.74716 10.90736 15262 ft 311 kts 142°
2026-05-09 05:22 45.73042 10.92681 14940 ft 309 kts 142°
2026-05-09 05:22 45.71381 10.94607 14629 ft 306 kts 142°
2026-05-09 05:23 45.69750 10.96498 14312 ft 305 kts 142°
2026-05-09 05:23 45.68110 10.98398 13991 ft 304 kts 142°
2026-05-09 05:23 45.66467 11.00304 13661 ft 303 kts 141°
2026-05-09 05:23 45.65118 11.02604 13238 ft 304 kts 117°
2026-05-09 05:24 45.64536 11.05487 12928 ft 302 kts 95°
2026-05-09 05:24 45.64457 11.08466 12662 ft 298 kts 92°
2026-05-09 05:24 45.64400 11.11412 12356 ft 295 kts 91°
2026-05-09 05:24 45.64354 11.14331 12058 ft 293 kts 91°
2026-05-09 05:25 45.64317 11.17222 11753 ft 289 kts 91°
2026-05-09 05:25 45.64283 11.20089 11429 ft 287 kts 91°
2026-05-09 05:25 45.64221 11.25762 10850 ft 286 kts 91°
2026-05-09 05:26 45.64189 11.28629 10544 ft 291 kts 91°
2026-05-09 05:26 45.64156 11.31535 10248 ft 293 kts 91°
2026-05-09 05:26 45.64123 11.34431 10077 ft 290 kts 91°
2026-05-09 05:26 45.64089 11.37309 9761 ft 289 kts 91°
2026-05-09 05:27 45.64055 11.40178 9437 ft 288 kts 91°
2026-05-09 05:27 45.64021 11.43024 9117 ft 286 kts 91°
2026-05-09 05:27 45.63995 11.45867 8781 ft 285 kts 91°
2026-05-09 05:27 45.63971 11.48690 8467 ft 283 kts 91°
2026-05-09 05:28 45.63945 11.51495 8173 ft 281 kts 91°
2026-05-09 05:28 45.63919 11.54278 7876 ft 279 kts 91°
2026-05-09 05:28 45.63885 11.57040 7575 ft 276 kts 91°
2026-05-09 05:28 45.63846 11.59732 7266 ft 266 kts 91°
2026-05-09 05:29 45.63809 11.62330 7004 ft 256 kts 91°
2026-05-09 05:29 45.63773 11.64817 6786 ft 244 kts 91°
2026-05-09 05:29 45.63446 11.67129 6487 ft 236 kts 118°
2026-05-09 05:29 45.62417 11.68864 6199 ft 226 kts 141°
2026-05-09 05:30 45.61221 11.70224 5970 ft 213 kts 142°
2026-05-09 05:30 45.60087 11.71489 5731 ft 201 kts 142°
2026-05-09 05:30 45.59023 11.72664 5514 ft 185 kts 142°
2026-05-09 05:30 45.58042 11.73740 5313 ft 171 kts 143°
2026-05-09 05:31 45.57119 11.74745 5150 ft 165 kts 143°
2026-05-09 05:31 45.56208 11.75733 5028 ft 164 kts 143°
2026-05-09 05:31 45.55300 11.76717 4964 ft 169 kts 143°
2026-05-09 05:31 45.54539 11.78031 4881 ft 174 kts 109°
2026-05-09 05:32 45.54488 11.79723 4744 ft 173 kts 74°
2026-05-09 05:32 45.54860 11.81366 4676 ft 175 kts 71°
2026-05-09 05:32 45.55254 11.83008 4537 ft 175 kts 70°
2026-05-09 05:32 45.55661 11.84642 4403 ft 174 kts 70°
2026-05-09 05:33 45.56076 11.86266 4275 ft 174 kts 70°
2026-05-09 05:33 45.56495 11.87882 4170 ft 173 kts 69°
2026-05-09 05:33 45.56916 11.89492 4057 ft 173 kts 69°
2026-05-09 05:33 45.57332 11.91077 3897 ft 165 kts 69°
2026-05-09 05:34 45.57719 11.92544 3743 ft 157 kts 69°
2026-05-09 05:34 45.58101 11.93988 3540 ft 154 kts 69°
2026-05-09 05:34 45.58480 11.95419 3344 ft 154 kts 69°
2026-05-09 05:34 45.58858 11.96842 3146 ft 153 kts 69°
2026-05-09 05:35 45.59235 11.98263 2943 ft 153 kts 69°
2026-05-09 05:35 45.59611 11.99679 2748 ft 152 kts 69°
2026-05-09 05:35 45.59984 12.01086 2539 ft 152 kts 69°
2026-05-09 05:35 45.60360 12.02501 2345 ft 151 kts 69°
2026-05-09 05:36 45.60732 12.03902 2147 ft 150 kts 69°
2026-05-09 05:36 45.61103 12.05296 1949 ft 150 kts 68°
2026-05-09 05:36 45.61469 12.06677 1748 ft 149 kts 68°
2026-05-09 05:36 45.61835 12.08058 1539 ft 148 kts 68°
2026-05-09 05:37 45.62198 12.09431 1344 ft 148 kts 68°
2026-05-09 05:37 45.62561 12.10802 1103 ft 147 kts 68°
2026-05-09 05:37 45.62926 12.12157 905 ft 146 kts 68°
2026-05-09 05:37 45.63281 12.13511 764 ft 145 kts 69°
2026-05-09 05:38 45.63639 12.14861 596 ft 145 kts 68°
2026-05-09 05:38 45.64000 12.16204 376 ft 144 kts 69°
2026-05-09 05:38 45.64352 12.17543 174 ft 144 kts 68°
2026-05-09 05:38 45.64705 12.18849 64 ft 130 kts 69°
2026-05-09 05:39 45.64942 12.19753 62 ft 65 kts 69°
2026-05-09 05:39 45.65058 12.20134 61 ft 24 kts 52°
2026-05-09 05:39 45.65168 12.20245 65 ft 16 kts 22°
2026-05-09 05:39 45.65247 12.20295 65 ft 0 kts 31°
2026-05-09 05:41 45.65250 12.20298 65 ft 2 kts 31°
2026-05-09 05:41 45.65269 12.20316 61 ft 5 kts 38°
2026-05-09 05:42 45.65304 12.20346 64 ft 6 kts
2026-05-09 05:42 45.65341 12.20328 64 ft 5 kts 339°
2026-05-09 05:42 45.65354 12.20321 60 ft 0 kts 339°